Regional Weather Roundup
Issued by NWS Northern Indiana

Home | Current Version | Previous Version | Text Only | Print | Product List | Glossary Off
Versions: 1 2 3 4 5 6 7 8 9 10 11 12 13 14 15 16 17 18 19 20 21 22 23 24 25 26 27 28 29 30 31 32 33 34 35 36 37 38 39 40 41 42 43 44 45 46 47 48 49 50

000
ASUS43 KIWX 192100
RWRIWX

KIWX WEATHER ROUNDUP
NATIONAL WEATHER SERVICE NORTHERN INDIANA
500 PM EDT SUN OCT 19 2014

NOTE: "FAIR" INDICATES FEW OR NO CLOUDS BELOW 12,000 FEET WITH NO
SIGNIFICANT WEATHER AND/OR OBSTRUCTIONS TO VISIBILITY.

* THESE STATIONS ARE NOT UNDER NWS QUALITY CONTROL. THEY ALSO MAY NOT
  REPORT WEATHER SUCH AS PRECIPITATION OR FOG.

INZ001>027-192200-
NORTHERN INDIANA

CITY           SKY/WX    TMP DP  RH WIND       PRES   REMARKS
GARY*          PTSUNNY   57  39  51 S12       30.06F
SOUTH BEND     PTSUNNY   54  37  52 SW12      30.08F
GOSHEN         PTSUNNY   53  38  56 SW16      30.08F
ANGOLA*        SUNNY     54  37  54 W7        30.08F
FORT WAYNE     PTSUNNY   54  37  52 SW10      30.11F
PERU/GRISSOM   MOSUNNY   55  43  62 SW9       30.10F

$$
INZ028>050-192200-
CENTRAL INDIANA

CITY           SKY/WX    TMP DP  RH WIND       PRES   REMARKS
LAFAYETTE      SUNNY     56  39  53 SW8       30.11F
KOKOMO*        MOSUNNY   57  37  47 SW10      30.11F
MUNCIE*        MOSUNNY   56  35  45 SW8       30.11F
INDIANAPOLIS   PTSUNNY   55  39  54 VRB6      30.13F

$$
MIZ043>046-050>051-056>058-064>065-071>073-077>080-192200-
SOUTHWEST LOWER MICHIGAN

CITY           SKY/WX    TMP DP  RH WIND       PRES   REMARKS
BATTLE CREEK   CLOUDY    52  36  54 SW13      30.07F
BENTON HARBOR  CLOUDY    52  37  56 SW8       30.06F
COLDWATER*     PTSUNNY   52  38  58 SW8       30.08F
HILLSDALE*     PTSUNNY   52  33  49 SW6       30.08F
HOLLAND        CLOUDY    52  39  61 SW17      30.05F
GRAND RAPIDS   CLOUDY    52  37  56 SW13      30.05F
KALAMAZOO      CLOUDY    53  36  52 SW12      30.07F
STURGIS*       PTSUNNY   52  39  62 SW10      30.08F
THREE RIVERS*  FAIR      54  38  55 SW7       30.08F

$$
OHZ001>008-015>018-024>025-192200-
NORTHWEST OHIO

CITY           SKY/WX    TMP DP  RH WIND       PRES   REMARKS
DEFIANCE       PTSUNNY   53  33  46 SW9       30.11F
FINDLAY        PTSUNNY   53  33  46 SW12      30.10F
TOLEDO EXPRESS PTSUNNY   51  29  42 SW10      30.10F
TOLEDO METCALF PTSUNNY   52  31  44 SW12      30.11F
LIMA           PTSUNNY   53  32  44 SW10      30.11F

$$
AND FOR LAKE MICHIGAN COASTAL AND OPEN LAKE BUOY OBSERVATIONS

STATION/POSITION TEMP    WIND        PRES    VSBY  WAVE
                 AIR SEA DIR/SP/G                  HT/PER
                 (F)     (DEG/KT/KT) (MB)    (MI)  (FT/S)
CALUMET HARBOR    55     210/ 12/ 17 1016.5F
MICHIGAN CITY     53     200/ 14/ 18   N/A
SAINT JOSEPH      53                 1018.6F
SOUTH LAKE BUOY   51 55  200/ 17/ 21 1017.7F         3/ 5

$$
&&



USA.gov is the U.S. government's official web portal to all federal, state and local government web resources and services.